Regional Weather Roundup
Issued by NWS

Home | Current Version | Previous Version | Text Only | Print | Product List | Glossary Off
Versions: 1 2 3 4 5 6 7 8 9 10 11 12 13 14 15 16 17 18 19 20 21 22 23 24 25 26 27 28 29 30 31 32 33 34 35 36 37 38 39 40 41 42 43 44 45 46 47 48 49 50

000
ASUS43 KLOT 292222
RWRIL

ILLINOIS REGIONAL WEATHER ROUNDUP
NATIONAL WEATHER SERVICE CHICAGO/ROMEOVILLE IL
500 PM CDT FRI MAY 29 2015

NOTE: "FAIR" INDICATES FEW OR NO CLOUDS BELOW 12,000 FEET WITH NO
SIGNIFICANT WEATHER AND/OR OBSTRUCTIONS TO VISIBILITY.

* THESE STATIONS ARE NOT UNDER NWS QUALITY CONTROL. THEY ALSO MAY NOT
  REPORT WEATHER SUCH AS PRECIPITATION OR FOG.

ILZ001-002-007-009-015-016-024-292300-
NORTHWEST ILLINOIS

CITY           SKY/WX    TMP DP  RH WIND       PRES   REMARKS
MOLINE         PTSUNNY   80  64  58 SW15      29.89F HX  82
STERLING*      MOSUNNY   81  66  61 W15       29.89F HX  83
SAVANNA*       PTSUNNY   80  63  57 W8        29.89S HX  81
$$

ILZ003-004-008-010-011-017-018-292300-
NORTH CENTRAL ILLINOIS

CITY           SKY/WX    TMP DP  RH WIND       PRES   REMARKS
ROCKFORD       MOSUNNY   79  65  62 SW14      29.91F HX  81
FREEPORT*      HVY RAIN  69  65  88 W17G28    29.94R
ROCHELLE*      MOSUNNY   80  64  58 SW17      29.91F HX  82
DE KALB*       MOSUNNY   77  63  61 SW15G22   29.92S
PERU*          MOSUNNY   82  63  52 SW16      29.91F HX  83
$$

ILZ005-006-012>014-019>023-292300-
NORTHEAST ILLINOIS

CITY           SKY/WX    TMP DP  RH WIND       PRES   REMARKS
CHICAGO-OHARE  LGT RAIN  77  66  68 SW10      29.90F
CHICAGO-MIDWAY PTSUNNY   83  67  58 S14G22    29.90F HX  85
AURORA         MOSUNNY   83  62  49 SW17G24   29.91F HX  84
LANSING*       CLOUDY    81  60  49 SW12G20   29.92F HX  81
JOLIET*        CLOUDY    81  68  64 SW6       29.91F HX  84
WAUKEGAN       CLOUDY    72  66  81 SE7       29.89F
DUPAGE AIRPORT PTSUNNY   82  64  54 SW20G26   29.90F HX  83
KANKAKEE*      MOSUNNY   85  65  50 SW16G24   29.93F HX  86
WHEELING       LGT RAIN  78  65  63 S16G26    29.91S HX  80
MORRIS*        CLOUDY    80  67  65 SW9       29.91S HX  83
ROMEOVILLE*    CLOUDY    79  64  60 SW14      29.91F HX  81
NORTHERLY ISL    N/A     79  64  60 S12         N/A  HX  81
$$

LMZ740>746-292300-
SOUTHERN LAKE MICHIGAN

STATION/POSITION SKY/WX   TEMP    WIND        PRES    VSBY  WAVE
                          AIR SEA DIR/SP/G                  HT/PER
                          (F)     (DEG/KT/KT) (MB)    (MI)  (FT/S)
SOUTHERN BUOY              48 38  130/ 10/ 12 1013.3F         0
HARRISON CRIB              77     200/ 18/ 20   N/A
BURNHAM HARBOR             79     200/  8/ 19   N/A
CALUMET HARBOR             80     200/  8/ 17   N/A
BURNS HARBOR               80     210/  9/ 16 1014.2F
MICHIGAN CITY              82     180/ 12/ 17   N/A
MICHIGAN CITY 6N           71 57  200/  8/ 10   N/A           1/ 2
ST. JOSEPH                 71 61  120/  2/  6   N/A           1
$$

ILZ025>027-034>036-040-047-049-050-058-095>099-292300-
WEST-CENTRAL ILLINOIS

CITY           SKY/WX    TMP DP  RH WIND       PRES   REMARKS
QUINCY         CLOUDY    75  66  73 SW9       29.95F
GALESBURG*     PTSUNNY   79  64  61 SW13      29.92F HX  81
MACOMB*        PTSUNNY   78  65  65 SW7       29.94F HX  80
JACKSONVILLE*  CLOUDY    81  67  63 W12G17    29.95F HX  83
PITTSFIELD*    CLOUDY    75  65  71 SW7       29.97F
$$

ILZ028>032-037-038-041>044-048-051>054-059>061-292300-
CENTRAL ILLINOIS

CITY           SKY/WX    TMP DP  RH WIND       PRES   REMARKS
PONTIAC        PTSUNNY   83  68  60 SW15      29.93F HX  86
BLOOMINGTON    PTSUNNY   75  72  88 SW9       29.96S
DECATUR        PTSUNNY   81  65  58 S16       29.96F HX  83
PEORIA         SUNNY     84  64  50 W10       29.92F HX  85
LACON*         MOSUNNY   82  63  52 SW10G20   29.91F HX  83
LINCOLN*       TSTM      71  66  84 S7        29.92S
SPRINGFIELD    TSTM      71  67  87 S10       29.97R FOG
TAYLORVILLE    CLOUDY    79  68  69 S14       29.97S HX  81
$$

ILZ033-039-045-046-055>057-062-063-292300-
EAST-CENTRAL ILLINOIS

CITY           SKY/WX    TMP DP  RH WIND       PRES   REMARKS
CHAMPAIGN      PTSUNNY   85  63  47 S20G26    29.96F HX  86
DANVILLE*      MOSUNNY   84  64  49 S14G23    29.95S HX  85
RANTOUL*       MOSUNNY   85  64  48 SW16      29.96F HX  86
MATTOON        MOSUNNY   82  67  60 S8        29.97F HX  84
PARIS*         CLOUDY    83  65  54 S14       29.99F HX  85
$$

ILZ079-100>102-292300-
SOUTHWEST ILLINOIS

CITY           SKY/WX    TMP DP  RH WIND       PRES   REMARKS
BELLEVILLE     LGT RAIN  72  70  94 S3        29.97F
CAHOKIA*       LGT RAIN  77  70  79 S6        29.97F
SPARTA*        RAIN      69  67  94 NW8       30.01R
$$

ILZ064>066-069>071-074>076-080>082-084>086-088>090-092>094-292300-
SOUTH-CENTRAL ILLINOIS

CITY           SKY/WX    TMP DP  RH WIND       PRES   REMARKS
CARBONDALE     MOSUNNY   82  67  60 S12       29.99F HX  84
CAIRO*         MOSUNNY   84  67  55 SE10      29.99F HX  86
EFFINGHAM*     HVY RAIN  73  64  72 SW17G25   30.03R
MARION         PTSUNNY   84  70  61 S14       30.00F HX  88
MT. VERNON     PTSUNNY   81  64  57 W6        30.01R HX  82
CENTRALIA*     HVY RAIN  67  65  91 NW12G17   30.03R
SALEM*         CLOUDY    70  66  87 SW10      30.03R
METROPOLIS*    MOSUNNY   84  67  56 SE5       30.00F HX  87
$$

ILZ067-068-072-073-078-083-087-091-292300-
SOUTHEAST ILLINOIS

CITY           SKY/WX    TMP DP  RH WIND       PRES   REMARKS
LAWRENCEVILLE  PTSUNNY   85  64  49 S13       30.00F HX  86
FLORA*         SUNNY     85  62  46 SW15      29.99F HX  86
FAIRFIELD*     PTSUNNY   84  65  52 S9        29.99S HX  86
HARRISBURG*    SUNNY     83  65  53 S10       30.01F HX  85
ROBINSON*      SUNNY     84  62  47 S12       30.00F HX  85
CARMI*         SUNNY     86  55  35 S9        30.00S HX  84
$$

ABBREVIATIONS USED IN REMARKS
   TC - TEMPERATURE IN CELSIUS
  WCI - WIND CHILL INDEX
   HX - HEAT INDEX
  VSB - VISIBILITY
$$




USA.gov is the U.S. government's official web portal to all federal, state and local government web resources and services.